TimeEST,TemperatureF,Dew PointF,Humidity,Sea Level PressureIn,VisibilityMPH,Wind Direction,Wind SpeedMPH,Gust SpeedMPH,PrecipitationIn,Events,Conditions,WindDirDegrees,DateUTC
12:53 AM,17.1,9.0,71,29.81,5.0,WNW,16.1,28.8,0.00,Snow,Light Snow,300,2013-02-04 05:53:00
1:40 AM,15.8,6.8,68,29.73,10.0,WNW,17.3,23.0,0.00,,Scattered Clouds,300,2013-02-04 06:40:00
1:53 AM,16.0,6.1,65,29.83,10.0,WNW,11.5,21.9,0.00,,Scattered Clouds,300,2013-02-04 06:53:00
2:24 AM,15.8,6.8,68,29.74,10.0,WNW,13.8,20.7,N/A,,Mostly Cloudy,300,2013-02-04 07:24:00
2:53 AM,15.1,6.1,68,29.85,10.0,WNW,11.5,18.4,N/A,,Scattered Clouds,290,2013-02-04 07:53:00
3:53 AM,15.1,8.1,74,29.85,8.0,WNW,10.4,-,0.00,Snow,Light Snow,290,2013-02-04 08:53:00
5:53 AM,12.9,6.1,74,29.88,10.0,WNW,11.5,-,N/A,,Clear,300,2013-02-04 10:53:00
6:53 AM,12.9,6.1,74,29.90,10.0,WNW,13.8,23.0,N/A,,Clear,290,2013-02-04 11:53:00
7:53 AM,12.9,7.0,77,29.92,10.0,WNW,15.0,19.6,N/A,,Clear,290,2013-02-04 12:53:00
8:53 AM,16.0,7.0,68,29.93,9.0,WNW,15.0,24.2,N/A,,Partly Cloudy,290,2013-02-04 13:53:00
9:15 AM,15.8,6.8,68,29.83,4.0,WNW,15.0,20.7,0.00,Snow,Light Snow,290,2013-02-04 14:15:00
9:53 AM,17.1,6.1,62,29.93,10.0,WNW,13.8,26.5,0.00,,Overcast,300,2013-02-04 14:53:00
10:53 AM,17.1,6.1,62,29.94,9.0,WNW,16.1,24.2,N/A,,Overcast,300,2013-02-04 15:53:00
11:06 AM,17.6,6.8,63,29.85,8.0,West,11.5,24.2,0.00,,Overcast,280,2013-02-04 16:06:00
11:53 AM,19.0,6.1,57,29.92,10.0,WNW,11.5,21.9,0.00,,Overcast,300,2013-02-04 16:53:00
12:53 PM,19.9,3.9,50,29.91,10.0,West,15.0,21.9,N/A,,Mostly Cloudy,270,2013-02-04 17:53:00
1:53 PM,19.9,3.9,50,29.90,10.0,West,16.1,24.2,N/A,,Partly Cloudy,280,2013-02-04 18:53:00
2:53 PM,19.9,3.9,50,29.90,10.0,WNW,9.2,-,N/A,,Mostly Cloudy,290,2013-02-04 19:53:00
3:53 PM,19.9,6.1,55,29.91,10.0,West,16.1,21.9,N/A,,Mostly Cloudy,270,2013-02-04 20:53:00
4:53 PM,19.9,6.1,55,29.91,10.0,West,12.7,-,N/A,,Partly Cloudy,280,2013-02-04 21:53:00
5:53 PM,19.0,7.0,59,29.92,10.0,West,9.2,-,N/A,,Overcast,280,2013-02-04 22:53:00
6:53 PM,19.0,8.1,62,29.94,10.0,WSW,4.6,-,N/A,,Overcast,240,2013-02-04 23:53:00
7:53 PM,19.0,9.0,65,29.93,10.0,WNW,4.6,-,N/A,,Overcast,290,2013-02-05 00:53:00
8:53 PM,19.0,9.0,65,29.93,10.0,WSW,3.5,-,N/A,,Overcast,250,2013-02-05 01:53:00
9:53 PM,19.0,10.9,71,29.93,9.0,WSW,4.6,-,0.00,,Overcast,250,2013-02-05 02:53:00
10:53 PM,19.0,14.0,81,29.91,5.0,West,4.6,-,0.00,Snow,Light Snow,260,2013-02-05 03:53:00
11:40 PM,19.4,15.8,86,29.81,8.0,Calm,Calm,-,0.00,,Overcast,0,2013-02-05 04:40:00
11:53 PM,19.9,15.1,81,29.90,5.0,Calm,Calm,-,0.00,Snow,Light Snow,0,2013-02-05 04:53:00